Date String (YYYY-MM-DD hh:mm:ss) UTC,Instrument flags,absolute air pressure of the measurement (hPa),sample flow rate (lpm),inlet stack bypass flow (lpm),air temperature of the measurement (°C),ambient temperature measured by the external sensor (°C),aerosol sample conditioner tube jacket temperature (°C),OPC LED temperature (°C),internal box temperature (°C),relative humidity of the measurement (%),span deviation,mass concentration of particles derived from Lorenz-Mie calculation of OPC scattering (μg/m³),mass concentration of particles derived from Lorenz-Mie calculation of OPC scattering (μg/m³),mass concentration of particles derived from Lorenz-Mie calculation of OPC scattering (μg/m³)
DateTimeUTC,F1_M11,P_M11,Q1_M11,Q2_M11,T1_M11,T2_M11,T3_M11,T4_M11,T5_M11,U1_M11,ZSPAN_M11,X0_M11,X2_M11,X1_M11
2023-11-10 15:00:00,SystemResetWarning,0832.7,5.00,000.00,020.8,020.1,000.0,029.1,022.2,12.2,0000.0,0006.97,0003.68,0003.09
2023-11-10 15:01:00,SystemResetWarning,0832.7,5.00,000.00,020.8,020.1,000.0,029.1,022.2,12.1,0000.0,0006.64,0003.62,0003.08
2023-11-10 15:02:00,SystemResetWarning,0832.7,4.99,000.00,020.8,020.1,000.0,029.1,022.2,12.0,0000.0,0006.61,0003.61,0003.10
2023-11-10 15:03:00,SystemResetWarning,0832.7,5.00,000.00,020.8,020.0,000.0,029.1,022.2,12.1,0000.0,0006.89,0003.64,0003.12
2023-11-10 15:04:00,SystemResetWarning,0832.7,5.00,000.00,020.8,020.0,000.0,029.1,022.3,12.2,0000.0,0007.20,0003.64,0003.15
2023-11-10 15:05:00,SystemResetWarning,0832.7,5.00,000.00,020.8,020.0,000.0,029.1,022.2,12.2,0000.0,0007.85,0003.67,0003.19
2023-11-10 15:06:00,SystemResetWarning,0832.7,5.00,000.00,020.8,020.0,000.0,029.1,022.2,12.3,0000.0,0007.90,0003.74,0003.24
2023-11-10 15:07:00,SystemResetWarning,0832.7,5.00,000.00,020.8,020.0,000.0,029.1,022.2,11.9,0000.0,0007.62,0003.78,0003.29
2023-11-10 15:08:00,SystemResetWarning,0832.7,5.00,000.00,020.8,020.0,000.0,029.1,022.2,11.9,0000.0,0007.74,0003.83,0003.33
2023-11-10 15:09:00,SystemResetWarning,0832.7,5.00,000.00,020.8,020.0,000.0,029.1,022.2,11.8,0000.0,0007.80,0003.84,0003.36
2023-11-10 15:10:00,SystemResetWarning,0832.8,5.00,000.00,020.8,020.0,000.0,029.1,022.2,11.9,0000.0,0007.74,0003.81,0003.39
2023-11-10 15:11:00,SystemResetWarning,0832.7,5.00,000.00,020.8,020.0,000.0,029.1,022.2,12.3,0000.0,0007.77,0003.83,0003.41
2023-11-10 15:12:00,SystemResetWarning,0832.7,5.00,000.00,020.8,020.0,000.0,029.1,022.2,12.6,0000.0,0007.93,0003.88,0003.43
2023-11-10 15:13:00,SystemResetWarning,0832.7,5.00,000.00,020.8,020.0,000.0,029.1,022.2,12.5,0000.0,0008.08,0003.95,0003.46
2023-11-10 15:14:00,SystemResetWarning,0832.7,5.01,000.00,020.8,020.0,000.0,029.1,022.2,12.4,0000.0,0008.21,0004.00,0003.48
2023-11-10 15:15:00,SystemResetWarning,0832.8,5.00,000.00,020.8,020.0,000.0,029.2,022.3,12.4,0000.0,0008.06,0004.06,0003.49
2023-11-10 15:16:00,SystemResetWarning,0832.7,5.00,000.00,020.8,020.0,000.0,029.2,022.2,12.0,0000.0,0007.76,0004.05,0003.48
2023-11-10 15:17:00,SystemResetWarning,0832.8,5.00,000.00,020.8,020.0,000.0,029.2,022.3,12.0,0000.0,0007.59,0004.02,0003.47
2023-11-10 15:18:00,SystemResetWarning,0832.7,5.00,000.00,020.8,020.0,000.0,029.1,022.2,12.1,0000.0,0007.55,0004.01,0003.47
2023-11-10 15:19:00,SystemResetWarning,0832.7,4.99,000.00,020.8,020.0,000.0,029.2,022.2,12.3,0000.0,0007.50,0003.99,0003.46
2023-11-10 15:20:00,SystemResetWarning,0832.7,5.00,000.00,020.8,020.0,000.0,029.2,022.2,12.2,0000.0,0007.46,0004.00,0003.46
2023-11-10 15:21:00,SystemResetWarning,0832.7,5.00,000.00,020.8,020.0,000.0,029.2,022.2,12.1,0000.0,0007.59,0004.03,0003.45
2023-11-10 15:22:00,SystemResetWarning,0832.7,4.99,000.00,020.8,020.0,000.0,029.2,022.2,12.4,0000.0,0008.07,0004.07,0003.47
2023-11-10 15:23:00,SystemResetWarning,0832.8,5.01,000.00,020.8,020.0,000.0,029.2,022.3,12.1,0000.0,0008.52,0004.09,0003.46
2023-11-10 15:24:00,SystemResetWarning,0832.8,5.00,000.00,020.8,020.0,000.0,029.2,022.2,12.3,0000.0,0008.69,0004.08,0003.46
2023-11-10 15:25:00,SystemResetWarning,0832.9,4.99,000.00,020.8,020.0,000.0,029.2,022.2,12.0,0000.0,0008.61,0004.05,0003.45
2023-11-10 15:26:00,SystemResetWarning,0832.8,5.01,000.00,020.8,020.0,000.0,029.2,022.2,11.9,0000.0,0008.51,0004.02,0003.43
2023-11-10 15:27:00,SystemResetWarning,0832.8,5.00,000.00,020.8,020.0,000.0,029.2,022.2,12.1,0000.0,0008.31,0003.98,0003.42
2023-11-10 15:28:00,SystemResetWarning,0832.8,5.00,000.00,020.8,020.0,000.0,029.2,022.3,12.2,0000.0,0008.12,0003.95,0003.39
2023-11-10 15:29:00,SystemResetWarning,0832.9,5.00,000.00,020.8,020.1,000.0,029.2,022.3,12.1,0000.0,0008.04,0003.91,0003.36
2023-11-10 15:30:00,SystemResetWarning,0832.8,5.00,000.00,020.9,020.1,000.0,029.2,022.3,12.5,0000.0,0008.01,0003.89,0003.34
2023-11-10 15:31:00,SystemResetWarning,0832.8,5.00,000.00,020.9,020.1,000.0,029.2,022.2,12.4,0000.0,0008.06,0003.90,0003.36
2023-11-10 15:32:00,SystemResetWarning,0832.8,5.00,000.00,020.9,020.1,000.0,029.2,022.3,12.6,0000.0,0008.02,0003.90,0003.37
2023-11-10 15:33:00,SystemResetWarning,0832.8,5.00,000.00,020.9,020.1,000.0,029.2,022.3,12.6,0000.0,0007.77,0003.91,0003.36
2023-11-10 15:34:00,SystemResetWarning,0832.8,5.00,000.00,020.9,020.1,000.0,029.2,022.3,12.8,0000.0,0007.14,0003.91,0003.36
2023-11-10 15:35:00,SystemResetWarning,0832.8,5.00,000.00,020.9,020.1,000.0,029.2,022.3,12.7,0000.0,0007.72,0003.89,0003.36
2023-11-10 15:36:00,SystemResetWarning,0832.9,5.00,000.00,020.9,020.1,000.0,029.2,022.3,12.1,0000.0,0007.96,0003.88,0003.36
2023-11-10 15:37:00,SystemResetWarning,0832.8,5.00,000.00,020.9,020.1,000.0,029.2,022.3,12.2,0000.0,0008.05,0003.86,0003.37
2023-11-10 15:38:00,SystemResetWarning,0832.9,5.00,000.00,020.9,020.1,000.0,029.2,022.3,12.5,0000.0,0008.15,0003.87,0003.37
2023-11-10 15:39:00,SystemResetWarning,0833.1,5.00,000.00,020.9,020.1,000.0,029.2,022.3,12.6,0000.0,0008.71,0003.90,0003.38
2023-11-10 15:40:00,SystemResetWarning,0833.0,5.00,000.00,020.9,020.1,000.0,029.2,022.3,12.2,0000.0,0008.81,0003.92,0003.39
2023-11-10 15:41:00,SystemResetWarning,0833.0,5.00,000.00,020.9,020.1,000.0,029.2,022.3,12.4,0000.0,0008.90,0003.92,0003.38
2023-11-10 15:42:00,SystemResetWarning,0833.4,5.00,000.00,020.9,020.1,000.0,029.2,022.3,12.8,0000.0,0008.86,0003.89,0003.34
2023-11-10 15:43:00,SystemResetWarning,0833.3,5.01,000.00,020.9,020.1,000.0,029.2,022.3,12.8,0000.0,0008.83,0003.86,0003.32
2023-11-10 15:44:00,SystemResetWarning,0833.4,5.00,000.00,020.9,020.1,000.0,029.2,022.3,12.9,0000.0,0008.96,0003.83,0003.31
2023-11-10 15:45:00,SystemResetWarning,0833.1,5.00,000.00,020.9,020.1,000.0,029.2,022.3,12.9,0000.0,0009.16,0003.84,0003.31
2023-11-10 15:46:00,SystemResetWarning,0832.9,5.00,000.00,020.9,020.1,000.0,029.2,022.3,12.9,0000.0,0009.19,0003.84,0003.31
2023-11-10 15:47:00,SystemResetWarning,0832.9,5.00,000.00,020.9,020.1,000.0,029.3,022.3,12.8,0000.0,0008.84,0003.85,0003.31
2023-11-10 15:48:00,SystemResetWarning,0833.0,4.99,000.00,020.9,020.1,000.0,029.2,022.3,12.6,0000.0,0008.75,0003.87,0003.30
2023-11-10 15:49:00,SystemResetWarning,0833.4,4.99,000.00,020.9,020.1,000.0,029.2,022.4,12.5,0000.0,0008.81,0003.88,0003.30
2023-11-10 15:50:00,SystemResetWarning,0833.3,5.00,000.00,020.9,020.1,000.0,029.3,022.4,12.3,0000.0,0008.42,0003.85,0003.30
2023-11-10 15:51:00,SystemResetWarning,0833.3,5.01,000.00,020.9,020.2,000.0,029.3,022.4,12.4,0000.0,0008.62,0003.84,0003.30
2023-11-10 15:52:00,SystemResetWarning,0833.2,5.01,000.00,020.9,020.2,000.0,029.3,022.4,12.3,0000.0,0008.57,0003.84,0003.31
2023-11-10 15:53:00,SystemResetWarning,0832.8,5.01,000.00,021.0,020.2,000.0,029.3,022.4,12.6,0000.0,0008.78,0003.83,0003.31
2023-11-10 15:54:00,SystemResetWarning,0832.9,4.99,000.00,021.0,020.2,000.0,029.3,022.4,12.3,0000.0,0009.16,0003.82,0003.30
2023-11-10 15:55:00,SystemResetWarning,0832.8,4.99,000.00,021.0,020.2,000.0,029.3,022.4,12.4,0000.0,0008.93,0003.81,0003.29
2023-11-10 15:56:00,SystemResetWarning,0832.8,5.00,000.00,021.0,020.2,000.0,029.3,022.4,12.4,0000.0,0009.36,0003.78,0003.28
2023-11-10 15:57:00,SystemResetWarning,0832.8,5.00,000.00,021.0,020.2,000.0,029.3,022.4,12.3,0000.0,0008.57,0003.77,0003.26
2023-11-10 15:58:00,SystemResetWarning,0832.8,5.00,000.00,021.0,020.3,000.0,029.3,022.5,12.4,0000.0,0008.63,0003.72,0003.24
2023-11-10 15:59:00,SystemResetWarning,0833.0,5.00,000.00,021.0,020.3,000.0,029.3,022.5,12.0,0000.0,0008.53,0003.67,0003.21
